Wind_Speed
7 8 10 10 11 12 13 15 16 17 18 18 17 18 18 19 20 21 21 22 22 23 23 25 26 27 27 27 28 29 31 32 32 32 33 33 33 33 33 34 34 34 34 35
7 8 9 9 10 11 13 14 15 16 16 17 17 17 17 17 18 20 20 21 22 23 24 24 25 25 26 27 28 28 29 30 31 31 31 32 32 33 34 35 34 35 35 35
7 8 9 9 9 10 11 13 13 14 15 16 17 16 15 16 18 19 19 19 20 21 22 23 23 24 25 25 25 26 26 26 27 28 29 30 30 31 31 32 33 34 35 35
8 8 9 9 10 10 11 12 13 14 14 15 16 16 15 15 16 17 18 19 19 21 22 23 23 23 24 24 25 24 25 25 26 27 28 29 29 30 30 31 32 33 34 35
8 8 9 10 10 11 12 12 12 13 14 14 15 16 14 15 15 16 17 19 21 22 22 22 23 22 23 24 24 24 24 25 25 26 27 28 29 30 31 31 32 32 34 35
8 9 10 10 11 12 12 12 12 12 13 14 14 15 15 15 15 16 18 19 20 21 22 23 23 22 23 23 23 23 24 25 25 26 27 28 29 30 31 31 32 33 34 35
9 10 10 11 11 11 12 12 12 13 14 14 14 15 16 16 16 17 19 20 21 21 22 23 24 23 23 24 24 24 24 25 25 27 27 29 30 30 31 32 33 34 35 36
11 11 11 11 11 12 12 12 13 14 15 14 14 16 16 16 16 17 18 20 20 20 21 22 23 23 25 26 26 25 25 26 26 27 28 29 30 31 31 32 33 34 35 36
12 12 12 12 12 12 12 13 13 14 15 14 14 14 15 15 15 16 17 18 19 19 20 21 23 24 24 25 26 26 27 27 27 28 28 29 30 31 32 33 34 34 35 35
13 13 12 12 13 13 13 13 14 15 16 15 14 14 14 14 15 16 17 18 19 19 20 22 23 24 25 25 26 26 27 26 26 26 27 29 30 32 32 33 34 34 34 36
13 14 13 13 13 13 13 13 13 15 15 15 16 14 15 15 16 17 18 19 19 19 21 22 23 24 24 25 25 25 25 26 26 27 28 29 31 32 32 33 33 33 34 36
14 14 14 14 14 14 13 13 13 14 15 16 17 15 15 16 17 18 19 19 19 20 20 21 22 23 23 24 24 24 25 25 26 27 29 30 31 31 32 32 33 34 34 36
16 16 16 16 15 15 15 14 15 16 16 17 17 16 17 18 19 19 20 20 20 20 21 21 22 22 23 23 24 25 25 26 26 28 29 30 32 32 33 33 34 35 36 37
18 18 18 18 18 17 16 16 17 18 18 18 18 17 17 19 20 20 20 20 21 21 22 22 22 23 23 24 25 26 27 27 28 29 30 31 32 33 34 34 35 35 36 37
20 21 20 20 20 19 19 18 18 19 19 20 19 20 19 20 20 21 21 21 21 22 22 23 24 24 25 25 26 27 28 29 30 31 32 33 34 35 35 35 36 36 36 37
22 22 22 22 22 22 22 20 20 20 20 20 21 21 20 21 21 22 22 22 22 22 23 23 24 25 26 27 28 29 30 31 31 32 32 33 34 34 35 35 35 36 36 36
24 24 24 24 24 24 24 22 22 21 21 22 23 22 22 22 23 23 23 23 23 23 23 24 25 26 27 28 29 30 30 31 32 32 32 33 33 34 34 34 34 34 35 36
25 25 25 25 25 26 24 24 23 23 23 23 23 23 23 23 23 24 24 24 24 24 24 25 26 27 28 29 29 30 30 31 31 32 33 33 33 34 34 35 35 35 35 36
26 27 27 28 28 28 25 25 25 25 24 23 24 24 24 24 24 24 25 25 25 25 26 26 27 27 28 29 30 30 31 31 31 32 33 34 34 34 34 35 35 35 35 36
27 27 28 29 30 29 26 25 25 26 25 25 25 25 25 26 26 25 26 27 27 27 27 27 27 28 29 30 31 31 32 32 33 33 33 34 34 34 34 35 35 36 37 38
29 29 29 29 30 30 28 27 27 28 27 27 27 28 28 28 28 27 28 28 29 29 29 29 29 30 30 31 32 32 33 33 34 35 34 35 35 35 36 37 37 38 39 40
32 31 31 31 31 30 28 29 29 29 30 30 30 30 30 30 30 30 30 30 30 30 30 30 31 31 32 32 33 33 34 34 35 35 36 37 37 37 38 39 40 40 40 41
33 33 32 32 31 29 29 30 30 30 31 32 32 32 32 32 32 32 32 32 32 32 32 32 32 32 32 33 34 35 35 36 36 36 37 38 38 39 40 40 40 41 41 42
34 34 34 34 32 31 31 31 31 32 33 34 33 33 33 33 33 33 33 34 34 34 34 34 34 34 34 35 36 37 37 37 37 38 38 39 39 40 40 41 42 42 43 43
36 36 36 35 34 35 34 34 33 34 34 35 35 35 35 35 35 36 36 35 36 36 36 36 36 36 36 37 37 37 38 38 39 39 40 41 41 41 41 42 43 44 45 46
38 38 38 38 37 37 36 35 36 36 36 36 37 37 37 37 37 37 37 37 37 38 38 38 38 38 38 39 39 39 40 40 40 41 42 42 42 43 43 44 45 46 46 46
Wind_Direction
282 273 278 278 280 279 277 274 273 271 270 270 269 267 266 265 266 267 267 265 264 266 267 270 274 276 277 277 275 275 273 270 269 270 271 271 271 271 272 274 275 277 278 277
293 286 291 293 287 283 282 280 279 273 269 270 271 270 270 270 267 269 269 268 268 270 270 271 274 277 278 279 277 276 275 273 272 272 272 273 273 274 276 276 277 276 278 280
300 296 296 299 297 293 291 289 285 279 274 272 274 272 271 273 271 268 269 270 272 273 274 273 276 279 280 280 279 278 277 275 275 275 275 275 275 278 279 279 279 279 280 281
303 303 300 298 300 298 296 296 289 282 279 277 278 276 273 275 273 271 272 275 278 277 279 277 279 280 281 282 280 280 279 277 277 279 279 278 277 279 279 280 281 282 282 281
310 305 305 302 303 303 300 300 294 288 284 282 281 281 279 278 275 275 277 280 282 281 281 281 280 282 283 283 282 281 280 279 280 281 281 279 279 279 280 281 282 284 285 285
311 309 308 309 307 307 305 300 297 293 289 286 285 284 283 281 280 280 281 283 285 285 283 284 283 283 285 286 283 283 281 282 283 283 282 282 282 281 281 282 282 284 286 287
308 308 308 308 308 308 305 302 298 294 293 291 290 288 289 287 284 284 285 286 287 287 288 288 286 286 287 287 287 286 285 284 285 286 286 284 283 284 283 283 283 284 285 285
308 305 306 307 308 308 306 304 301 301 300 296 294 293 294 293 289 289 289 290 289 289 291 293 291 290 289 289 289 289 288 288 289 289 289 287 286 285 285 285 285 284 285 285
305 306 305 306 307 310 308 303 301 302 302 299 297 297 296 294 292 294 294 291 292 293 292 294 294 294 294 292 293 293 294 293 292 292 291 289 288 287 287 287 287 287 286 287
304 303 303 303 304 306 305 302 300 303 307 303 301 300 300 299 298 297 298 296 295 297 297 297 297 297 297 295 294 294 295 296 296 294 292 290 289 288 289 288 288 288 288 288
300 300 300 301 304 306 306 303 300 300 304 303 304 305 304 303 302 302 301 300 299 300 302 303 301 301 300 298 296 295 295 296 297 296 294 292 292 292 293 292 291 290 289 289
297 295 294 297 300 301 300 299 297 298 301 300 301 306 305 304 303 304 303 302 304 302 305 306 305 303 302 300 297 296 297 298 299 299 298 295 295 295 295 295 294 294 293 294
291 291 291 292 296 297 296 294 293 294 296 297 297 304 304 306 306 305 304 303 304 304 303 304 304 302 301 301 299 299 299 299 299 300 300 298 297 296 295 296 297 296 295 295
286 287 289 291 291 292 293 292 290 290 292 294 295 298 300 303 306 307 305 303 304 303 302 301 301 302 301 301 301 301 300 300 300 301 301 300 299 298 297 297 298 298 298 297
285 285 287 287 287 288 289 290 289 289 292 295 297 297 300 302 305 307 308 306 305 304 303 302 302 303 304 303 303 302 302 301 301 301 302 302 301 300 299 299 299 299 299 300
284 285 286 286 285 285 285 287 288 291 292 296 297 299 300 302 304 307 309 308 306 304 305 305 305 305 305 305 305 304 303 303 303 303 304 305 304 303 302 301 301 300 300 301
281 284 285 285 285 283 282 286 289 291 292 294 296 298 298 299 300 303 306 307 308 307 307 307 307 306 307 307 307 307 307 306 305 306 306 307 307 305 304 303 302 302 302 302
280 281 283 283 283 282 286 286 287 288 290 292 292 293 294 296 299 301 303 305 306 305 305 307 308 307 308 308 309 310 310 309 308 308 308 308 308 307 305 303 302 302 302 303
278 279 281 282 282 283 284 286 288 288 288 290 292 293 295 298 298 300 302 302 302 302 303 305 307 307 308 308 309 310 311 311 310 310 309 309 309 308 307 305 303 303 303 305
276 277 278 281 282 284 287 287 287 288 289 291 293 292 292 294 295 298 299 300 299 299 300 302 303 305 306 307 308 309 309 309 310 310 310 310 310 309 308 308 307 306 306 306
274 275 277 279 282 284 286 286 287 288 291 292 291 291 291 292 294 296 298 299 299 298 299 300 301 302 304 305 306 307 307 308 309 310 310 310 309 309 308 308 309 308 308 307
272 274 276 278 280 284 286 286 286 288 288 289 290 291 292 293 294 294 296 298 298 297 297 298 299 301 302 303 304 305 306 307 308 308 309 308 308 308 308 308 308 309 309 308
271 273 275 276 278 282 283 284 285 286 287 288 289 292 293 293 293 294 294 295 297 297 297 297 298 300 301 302 303 304 306 306 306 306 307 308 308 309 308 308 308 308 309 309
270 270 272 273 274 276 278 281 283 285 285 286 288 290 291 291 292 293 293 294 294 296 296 296 296 297 299 300 301 303 304 305 306 306 307 308 308 308 308 309 308 308 309 309
269 269 270 271 273 273 276 278 281 284 285 285 286 287 288 289 290 291 292 294 295 295 295 295 296 297 298 299 301 302 303 304 305 306 307 307 308 308 308 309 309 309 309 309
269 270 271 271 271 273 275 276 278 281 282 284 285 286 286 287 289 290 291 292 293 294 294 295 295 296 296 298 299 301 302 303 303 304 305 306 306 307 307 308 308 308 309 308
Height
5731 5732 5731 5731 5731 5731 5731 5731 5731 5731 5730 5730 5730 5730 5730 5730 5730 5730 5730 5731 5731 5731 5732 5731 5731 5730 5728 5727 5726 5724 5722 5721 5720 5720 5719 5719 5718 5718 5717 5716 5716 5715 5714 5713
5730 5730 5729 5728 5728 5728 5727 5727 5727 5726 5726 5725 5726 5726 5726 5725 5725 5726 5726 5726 5726 5726 5726 5725 5725 5723 5722 5720 5719 5717 5715 5714 5713 5712 5711 5710 5710 5709 5708 5707 5706 5706 5705 5704
5729 5729 5727 5727 5726 5725 5725 5724 5723 5723 5722 5722 5722 5723 5722 5722 5721 5722 5722 5722 5721 5721 5720 5720 5719 5717 5716 5714 5712 5710 5708 5707 5705 5704 5703 5702 5701 5700 5699 5698 5697 5697 5696 5695
5727 5726 5726 5725 5724 5723 5722 5721 5720 5719 5719 5718 5718 5718 5720 5718 5718 5718 5718 5717 5717 5716 5715 5714 5713 5711 5710 5708 5706 5704 5702 5700 5698 5697 5696 5695 5694 5693 5691 5690 5689 5688 5687 5686
5725 5725 5724 5723 5722 5721 5720 5718 5717 5716 5715 5715 5715 5715 5717 5715 5715 5715 5714 5713 5712 5711 5710 5709 5707 5706 5704 5702 5700 5698 5696 5694 5692 5690 5689 5687 5686 5685 5684 5683 5682 5680 5679 5678
5725 5724 5722 5721 5720 5718 5717 5716 5715 5714 5713 5713 5713 5712 5713 5713 5712 5712 5711 5709 5708 5707 5705 5704 5702 5700 5699 5696 5694 5692 5690 5688 5686 5684 5682 5680 5679 5678 5677 5675 5674 5673 5671 5670
5724 5723 5721 5719 5718 5717 5715 5715 5713 5711 5710 5710 5710 5708 5710 5709 5708 5707 5707 5705 5703 5702 5700 5699 5697 5695 5693 5691 5689 5686 5684 5682 5680 5677 5675 5674 5672 5671 5669 5668 5666 5664 5663 5661
5722 5721 5719 5717 5716 5715 5713 5712 5711 5710 5708 5708 5707 5705 5707 5705 5705 5703 5702 5701 5699 5697 5695 5694 5692 5690 5687 5685 5683 5681 5678 5676 5673 5671 5669 5667 5665 5663 5662 5660 5658 5656 5654 5652
5720 5719 5717 5715 5714 5713 5711 5710 5709 5707 5705 5704 5704 5703 5703 5702 5701 5700 5698 5696 5695 5693 5691 5689 5687 5684 5682 5680 5677 5675 5673 5670 5667 5665 5662 5660 5658 5656 5654 5652 5650 5648 5646 5644
5717 5716 5715 5714 5712 5711 5709 5708 5707 5705 5702 5701 5701 5700 5701 5699 5698 5696 5694 5692 5690 5688 5686 5684 5682 5679 5676 5674 5671 5669 5667 5664 5661 5659 5656 5654 5652 5650 5648 5645 5643 5640 5638 5636
5715 5713 5713 5711 5710 5708 5707 5706 5704 5702 5701 5699 5697 5701 5698 5696 5694 5693 5691 5688 5686 5684 5682 5679 5677 5674 5671 5668 5666 5664 5661 5659 5656 5653 5651 5648 5646 5644 5641 5638 5636 5633 5631 5628
5712 5711 5709 5709 5707 5705 5704 5703 5702 5701 5699 5696 5695 5699 5694 5693 5690 5688 5687 5684 5682 5680 5678 5675 5672 5669 5667 5664 5661 5659 5657 5654 5651 5648 5645 5642 5640 5637 5634 5631 5628 5625 5623 5620
5709 5707 5706 5705 5707 5704 5702 5700 5699 5697 5696 5694 5692 5696 5691 5689 5687 5684 5682 5680 5678 5676 5674 5671 5668 5665 5663 5660 5657 5654 5652 5649 5646 5643 5640 5636 5633 5630 5627 5624 5621 5618 5614 5611
5705 5703 5703 5703 5701 5699 5698 5697 5695 5693 5692 5691 5690 5690 5689 5686 5683 5681 5679 5676 5674 5671 5669 5666 5664 5661 5659 5656 5653 5649 5646 5643 5640 5637 5634 5630 5627 5623 5620 5617 5613 5610 5606 5603
5700 5699 5698 5697 5696 5695 5694 5693 5691 5689 5688 5687 5687 5686 5685 5682 5679 5677 5675 5672 5670 5667 5664 5662 5660 5657 5654 5651 5648 5644 5641 5637 5634 5631 5628 5624 5620 5616 5612 5609 5605 5601 5598 5594
5696 5694 5693 5693 5692 5690 5689 5688 5687 5685 5684 5683 5682 5681 5681 5678 5675 5673 5670 5668 5665 5663 5660 5657 5654 5652 5649 5646 5642 5638 5635 5631 5627 5624 5620 5616 5612 5608 5604 5600 5597 5593 5589 5585
5690 5689 5688 5687 5686 5684 5684 5685 5683 5681 5680 5679 5677 5677 5675 5673 5670 5668 5666 5663 5661 5658 5655 5652 5649 5646 5643 5640 5636 5632 5628 5624 5620 5617 5613 5609 5605 5601 5597 5592 5589 5585 5581 5577
5685 5683 5682 5681 5680 5678 5682 5679 5678 5677 5676 5674 5672 5671 5669 5667 5665 5663 5660 5658 5656 5653 5650 5647 5644 5641 5638 5634 5630 5626 5622 5618 5614 5610 5606 5602 5598 5593 5589 5585 5581 5577 5572 5568
5678 5677 5675 5674 5672 5671 5675 5674 5672 5670 5670 5669 5667 5665 5663 5661 5659 5658 5655 5652 5650 5647 5645 5641 5638 5635 5632 5628 5624 5621 5617 5612 5608 5604 5600 5595 5591 5586 5581 5577 5573 5569 5564 5560
5671 5670 5669 5667 5665 5665 5670 5668 5665 5665 5664 5664 5660 5658 5657 5655 5653 5653 5649 5646 5644 5641 5638 5635 5632 5629 5625 5622 5618 5614 5610 5606 5602 5597 5593 5588 5583 5579 5574 5569 5565 5560 5556 5551
5664 5663 5662 5660 5658 5659 5663 5661 5659 5658 5659 5656 5653 5651 5650 5648 5647 5645 5643 5640 5637 5634 5631 5628 5625 5622 5618 5615 5611 5607 5603 5599 5595 5590 5585 5581 5576 5571 5567 5562 5557 5552 5547 5542
5656 5655 5654 5653 5651 5654 5656 5653 5652 5651 5649 5647 5645 5643 5642 5641 5639 5637 5635 5632 5629 5626 5624 5621 5618 5615 5611 5607 5604 5600 5596 5591 5587 5583 5578 5573 5568 5563 5558 5554 5549 5543 5538 5533
5647 5648 5646 5646 5647 5648 5646 5645 5643 5642 5641 5639 5637 5635 5634 5632 5630 5628 5626 5624 5621 5618 5616 5613 5610 5607 5603 5599 5596 5592 5588 5583 5579 5575 5570 5565 5560 5555 5550 5545 5540 5534 5529 5523
5638 5638 5636 5636 5639 5639 5637 5635 5634 5633 5631 5630 5628 5627 5625 5623 5621 5619 5617 5615 5612 5610 5607 5604 5601 5598 5595 5591 5587 5583 5579 5575 5570 5566 5561 5556 5551 5546 5541 5535 5530 5524 5518 5513
5627 5627 5626 5626 5629 5628 5627 5626 5625 5624 5622 5620 5619 5617 5615 5613 5612 5610 5608 5605 5603 5600 5598 5595 5592 5589 5586 5582 5578 5574 5570 5566 5561 5557 5552 5547 5542 5537 5532 5526 5520 5514 5508 5501
5618 5617 5616 5617 5619 5617 5617 5616 5615 5613 5612 5610 5609 5607 5605 5603 5602 5600 5597 5595 5593 5591 5588 5585 5582 5579 5575 5572 5568 5564 5560 5556 5551 5547 5542 5537 5532 5527 5521 5516 5510 5503 5497 5490